Theta_e
290 291 292 294 296 297 298 299 301 303 305 306 307 307 309 312 315 320 323 322 323 322 322 322 322 321 321 320 319 319 319 319 318 295 296 297 298 300 301 302 303 303 303
288 290 291 292 294 295 296 298 299 301 302 304 306 306 306 309 311 315 317 317 315 312 313 313 312 313 311 311 312 313 312 311 309 294 292 291 292 294 297 299 298 298 298
287 288 289 290 292 293 294 297 298 298 298 301 304 303 302 304 307 305 309 307 306 305 305 303 303 307 306 305 305 306 305 305 304 297 290 291 290 292 293 293 293 293 293
286 287 287 288 289 291 292 294 295 295 296 299 301 299 298 300 299 295 304 303 301 298 299 299 299 301 300 300 300 299 299 299 297 293 290 289 290 291 292 290 290 291 290
285 286 286 288 289 290 291 292 293 294 293 296 294 295 294 295 294 295 296 298 296 295 295 296 296 298 298 298 298 296 297 295 292 290 290 289 289 289 290 289 288 288 288
284 285 286 286 287 288 288 289 291 290 290 292 291 291 291 291 291 290 292 295 293 294 292 293 294 295 295 295 295 295 295 294 292 291 290 290 290 290 290 289 287 286 286
284 285 285 285 285 286 287 287 287 287 288 289 288 288 288 287 287 289 292 291 291 289 288 288 289 290 293 293 293 293 293 293 293 292 290 290 289 290 290 289 289 288 285
282 283 284 285 285 285 285 286 286 285 286 286 286 286 286 286 286 285 286 285 285 285 285 285 285 286 288 291 291 290 288 288 289 289 288 287 288 289 290 290 289 286 283
282 282 283 284 285 285 285 285 285 285 285 285 285 285 286 286 285 285 285 284 284 284 284 284 285 284 284 285 285 283 283 282 283 283 283 283 283 284 285 287 284 283 283
281 282 284 284 285 285 285 285 285 286 285 285 285 285 285 285 285 285 286 285 284 284 284 284 284 283 283 284 284 283 282 281 281 281 282 282 282 282 283 283 283 285 283
281 283 284 284 285 285 285 285 285 284 284 284 284 284 285 285 286 285 285 285 284 283 283 282 283 283 283 283 283 282 281 281 281 281 281 281 281 281 281 281 281 283 283
282 283 284 285 285 285 285 285 285 284 284 283 283 283 283 284 285 285 285 284 284 283 282 282 281 281 281 280 281 281 281 281 281 280 279 278 278 278 277 278 278 279 280
282 282 283 283 284 284 284 284 284 284 283 283 282 282 282 282 283 283 284 284 283 283 282 281 280 278 279 278 278 279 279 279 279 278 276 275 274 275 275 275 275 276 276
280 281 282 282 282 282 282 282 282 282 282 282 281 281 280 279 280 281 282 282 282 282 281 279 279 277 276 277 277 277 276 276 275 274 274 273 273 273 273 274 274 274 274
279 280 281 281 281 281 280 280 279 280 280 279 278 278 277 277 277 279 279 280 281 282 280 279 278 276 275 274 274 273 273 273 273 272 272 272 272 272 271 271 272 272 273
277 279 280 281 281 280 279 278 279 279 279 278 278 277 276 277 277 278 277 277 279 280 280 278 275 274 273 272 271 271 271 271 270 270 270 270 270 270 270 270 270 270 270
276 277 278 278 280 280 280 279 277 277 276 276 276 276 276 276 276 276 275 275 276 278 277 274 273 272 271 270 270 270 269 269 269 269 269 269 269 269 269 269 269 269 269
277 276 277 277 278 279 279 279 279 278 276 274 274 274 274 274 274 274 273 274 274 274 273 272 270 270 269 269 268 268 268 268 268 268 267 267 267 267 267 268 267 267 267
277 277 276 276 277 277 277 277 276 275 274 273 272 272 272 271 271 271 271 272 271 270 269 269 268 268 268 267 266 266 266 266 266 266 266 265 265 265 266 266 266 266 266
275 275 275 275 275 275 275 275 274 273 273 272 271 271 270 270 270 269 269 269 268 268 267 267 266 266 265 265 265 265 265 265 265 265 265 265 265 265 265 265 265 265 265
275 275 275 274 274 274 274 274 274 273 272 271 270 270 269 269 269 268 268 267 267 267 266 266 266 266 265 265 265 265 265 265 265 265 265 265 265 265 264 264 264 264 264
275 275 274 274 274 274 273 273 272 272 271 270 269 269 268 268 268 267 267 266 265 265 265 265 265 265 265 265 264 264 264 264 264 264 264 264 263 263 263 263 263 263 263
274 274 273 273 273 272 271 271 271 270 270 269 268 268 267 267 267 266 265 265 265 265 265 264 264 264 264 264 264 264 264 264 264 263 263 263 263 263 263 262 263 263 263
273 273 273 273 272 271 271 270 269 269 269 268 267 267 267 267 266 265 264 264 264 264 264 264 264 264 264 264 264 264 264 265 264 264 263 263 263 263 262 262 262 262 262
273 272 272 272 271 270 269 269 268 268 268 267 267 266 266 266 265 264 264 264 264 264 264 264 264 264 264 265 265 265 265 264 263 263 263 262 262 262 262 261 261 261 261
272 271 271 270 269 269 269 268 268 267 267 267 266 266 265 264 264 264 264 264 264 264 264 264 264 265 265 265 264 264 263 263 263 263 263 262 262 262 262 262 262 261 261
Wind_Speed
14 13 12 12 10 11 12 11 10 10 9 8 6 7 6 7 4 17 26 23 27 24 25 27 24 23 21 21 21 20 21 21 8 3 7 10 9 11 15 21 22 23 20
18 15 12 11 10 10 10 9 9 9 7 4 5 5 0 1 2 8 15 18 18 17 14 17 18 14 10 9 9 10 10 10 7 7 9 6 12 16 21 26 25 24 22
16 13 11 9 8 8 9 7 7 6 4 2 3 1 3 5 6 14 22 23 22 18 15 13 15 14 11 6 5 7 8 7 5 12 9 14 18 19 20 21 22 19 19
15 12 10 8 6 5 4 3 1 3 0 3 4 5 6 10 14 18 27 28 25 24 23 20 20 19 17 12 11 9 9 12 12 20 19 17 19 19 21 20 16 15 15
16 13 10 7 5 4 4 3 3 6 8 10 10 10 11 18 19 25 31 35 32 32 30 27 24 22 16 14 15 13 14 18 20 19 14 13 12 15 15 11 13 13 12
19 18 14 13 12 12 11 13 13 14 17 20 21 23 23 25 21 30 37 39 34 34 33 31 28 25 23 20 20 19 16 19 20 16 15 14 11 13 12 15 16 9 4
21 21 21 21 22 22 21 23 22 21 25 32 28 30 31 24 24 35 38 39 39 32 30 27 25 21 23 23 23 23 22 19 16 18 19 16 16 15 17 14 13 7 4
26 24 23 24 23 26 27 26 27 29 31 27 25 30 31 21 25 34 39 39 39 32 30 25 25 23 21 22 24 27 27 24 20 20 18 14 13 11 12 14 12 11 10
26 26 24 23 24 25 28 31 32 32 32 26 30 29 26 23 25 34 37 35 37 32 27 24 24 23 18 19 22 27 26 25 21 21 20 17 13 12 10 9 10 11 3
26 25 27 27 26 28 31 31 30 30 29 29 28 26 27 29 27 29 30 30 30 28 27 26 24 20 18 15 17 18 21 15 13 14 16 14 11 10 9 8 7 6 6
20 22 24 26 28 30 30 30 29 26 28 29 28 29 33 32 30 25 22 25 23 21 20 20 21 21 21 18 16 15 15 12 12 13 13 11 10 10 9 7 5 4 5
18 20 21 23 25 27 28 25 23 24 27 23 21 25 29 28 26 25 24 21 17 20 20 22 21 22 21 17 18 15 12 11 9 10 10 11 10 9 7 7 6 5 4
16 21 21 21 20 22 23 21 21 21 19 17 16 16 18 19 20 20 20 18 16 19 18 16 16 16 14 15 14 12 9 8 8 9 10 10 7 6 4 6 6 5 5
14 18 19 20 21 22 21 22 22 18 17 16 14 13 14 14 15 15 13 13 11 10 10 14 16 14 13 9 10 11 11 8 8 10 10 7 5 4 6 4 2 4 5
13 15 16 16 18 21 22 22 22 20 15 15 13 13 12 14 11 8 7 5 8 7 6 8 8 7 9 10 11 10 7 7 10 8 7 7 8 6 8 7 5 6 6
10 10 10 10 11 12 15 17 17 17 16 16 14 10 9 10 9 8 8 5 3 7 8 8 7 6 8 7 7 6 7 7 8 7 6 6 6 6 6 6 5 6 5
8 9 8 7 6 6 6 6 8 8 13 12 12 13 14 13 11 9 9 14 9 5 10 10 8 6 6 5 4 3 6 6 6 5 5 5 4 4 5 4 4 4 4
6 6 6 6 5 3 2 2 3 3 2 4 8 8 10 11 10 5 6 5 10 11 9 8 8 7 6 5 5 4 4 2 3 2 2 2 3 3 3 1 1 2 1
2 2 2 2 2 2 2 3 2 3 3 3 3 2 3 7 10 12 10 10 12 13 10 10 8 6 5 4 3 3 2 2 2 1 1 2 2 1 1 2 2 3 3
5 5 7 6 5 5 4 3 3 3 4 2 1 0 3 3 6 10 10 10 10 10 8 7 6 5 4 4 3 3 2 2 1 2 2 4 4 4 5 5 5 6 7
8 6 6 7 6 6 6 6 5 5 5 3 4 6 3 4 5 6 6 5 5 5 4 3 3 2 2 1 1 2 2 3 4 5 5 6 7 8 8 9 10 10 11
9 7 7 6 5 6 7 7 7 7 8 8 8 7 5 5 4 4 3 3 3 2 2 2 2 2 2 2 3 4 5 6 6 7 8 9 10 11 11 12 13 14 14
11 10 9 8 8 7 8 8 9 9 10 9 8 7 6 4 4 3 2 2 2 2 2 2 3 4 5 6 7 8 9 9 9 11 12 13 15 16 16 17 17 18 19
13 11 10 8 8 8 7 8 9 9 10 9 9 7 6 5 4 3 3 3 3 3 4 5 6 8 9 10 11 12 14 14 15 16 17 19 20 21 21 22 22 23 23
14 13 12 10 10 10 10 9 8 9 10 9 9 8 7 5 5 5 5 5 5 6 7 9 10 12 13 15 17 18 19 19 20 21 22 24 25 26 26 26 25 24 24
14 13 12 11 10 11 10 10 10 9 9 8 8 7 6 6 6 6 7 7 8 10 11 12 14 16 18 20 20 21 22 23 24 24 24 24 25 27 27 27 26 25 24
Wind_Direction
336 329 323 315 315 293 288 291 299 284 274 262 310 280 278 291 321 194 192 197 202 213 215 216 214 215 209 210 217 220 223 215 215 138 162 159 140 152 146 144 142 135 133
331 327 323 318 313 301 294 294 291 288 274 275 347 322 257 138 170 177 156 160 168 171 177 175 169 170 174 173 194 201 209 213 181 137 138 116 131 138 140 138 130 130 126
336 335 333 330 324 314 311 302 280 281 298 293 46 14 93 108 123 142 145 137 136 133 126 129 120 136 128 128 159 171 177 183 182 156 123 131 128 134 129 124 123 125 123
352 359 357 353 340 339 328 314 302 244 34 96 86 99 97 118 134 132 130 123 118 118 109 109 105 103 99 106 115 113 130 125 131 129 118 127 136 141 139 128 116 120 117
7 17 17 28 39 60 74 103 114 122 119 107 112 103 104 113 124 122 119 112 113 108 103 96 94 93 105 114 112 112 121 124 119 113 118 127 132 142 146 146 135 131 120
15 23 36 51 70 80 93 103 109 105 110 110 102 102 100 97 107 116 114 112 107 98 97 94 94 99 102 101 102 101 108 123 122 118 128 130 132 144 148 154 146 137 117
18 29 44 56 63 71 80 83 82 82 90 97 92 95 86 90 105 109 110 107 99 98 96 95 94 95 99 102 104 103 100 105 121 135 126 133 145 157 156 165 161 146 129
20 25 42 59 64 68 71 73 74 73 73 76 80 83 83 79 87 100 103 100 100 97 95 96 94 89 93 100 100 95 90 87 98 111 116 124 131 147 164 172 169 141 129
18 23 33 52 65 67 67 65 67 69 68 68 70 74 75 74 83 94 100 94 93 90 89 86 87 84 86 95 99 98 91 85 80 89 93 99 117 140 144 158 153 146 96
14 29 42 45 56 63 66 66 70 73 74 72 67 67 71 71 78 90 93 95 88 86 85 77 73 84 87 86 92 97 94 89 93 96 90 90 96 103 117 140 156 142 118
41 54 61 54 59 64 70 71 73 72 75 68 62 61 64 64 65 77 92 97 93 85 82 78 73 72 76 82 85 87 96 108 104 103 97 93 91 86 84 90 106 144 147
57 62 65 71 70 72 75 76 69 69 71 66 63 62 63 64 63 66 71 79 90 98 92 84 77 72 70 72 82 82 87 103 108 101 95 75 66 66 69 65 66 72 88
61 62 61 60 65 69 70 65 67 73 72 68 70 70 65 74 69 66 70 75 85 100 99 92 82 75 76 74 69 81 94 102 98 90 83 74 70 67 56 69 49 59 73
58 60 58 62 64 61 65 69 67 62 61 59 61 66 63 60 62 65 76 91 99 87 75 81 77 71 70 68 66 70 75 87 99 94 89 83 83 71 35 64 66 53 84
58 62 63 69 72 75 69 69 72 68 73 79 73 71 56 39 26 38 53 87 78 136 115 93 82 71 63 57 57 63 71 81 75 80 91 79 72 70 45 43 64 86 86
69 81 77 76 74 75 79 78 67 67 66 67 67 60 59 45 56 68 53 28 154 116 125 123 105 100 85 82 83 72 62 74 86 85 92 99 87 72 90 65 64 74 81
105 102 98 91 82 80 85 95 96 62 65 62 57 49 45 46 48 51 48 55 60 137 135 114 106 94 87 89 90 78 85 88 90 87 79 83 102 100 88 74 75 100 100
104 104 111 112 105 102 77 47 22 1 45 23 67 65 59 58 57 60 66 79 92 107 117 122 123 128 131 135 138 126 110 89 92 104 72 73 77 106 105 82 26 17 288
109 87 91 97 138 148 156 151 147 172 160 122 113 113 58 63 57 60 76 91 97 100 110 120 127 136 142 142 139 134 140 106 88 100 88 35 23 39 202 265 277 295 301
177 178 176 164 150 148 163 179 173 155 139 137 170 16 113 81 83 81 88 96 104 111 118 125 135 144 151 157 158 162 170 174 303 324 316 317 316 311 314 308 300 292 281
191 180 174 160 166 174 171 178 186 181 175 157 81 76 97 147 119 110 109 114 124 137 150 158 168 182 202 233 276 294 310 309 307 308 309 309 306 304 303 294 288 283 283
200 192 187 190 191 189 186 188 179 181 182 178 167 143 134 148 149 151 148 148 158 173 196 215 235 248 270 294 301 305 302 302 299 296 293 292 293 293 293 290 288 285 282
200 195 196 194 196 195 182 182 181 185 187 196 205 207 194 195 197 208 228 239 250 254 244 254 274 283 287 289 292 294 295 300 299 291 289 289 287 288 287 284 285 283 280
202 199 197 196 194 186 195 194 193 195 202 206 204 208 216 226 238 245 250 264 269 271 279 286 290 291 290 292 295 296 295 294 290 287 286 284 285 285 283 281 278 277 277
202 198 199 202 198 194 193 199 199 195 197 198 202 213 228 243 252 260 269 268 269 276 284 291 295 297 296 296 295 295 293 291 290 289 287 285 284 284 283 282 281 281 279
199 198 198 196 193 195 199 199 202 204 205 208 218 231 243 254 266 273 276 280 285 288 291 292 294 295 295 294 294 294 292 291 288 286 283 282 281 281 281 281 282 281 280